Location: Oriwa
(40.7500°S, 175.3333°E)
Time: 10:18:36
(UTC+00:00)

GEOS 3 Rocket - Pass Details

Date: 03 February 2023
Orbit: 772 x 846 km, 115.0° (Epoch: 19 March)

Event Time Altitude Azimuth Distance (km) Brightness Sun altitude
Rises 13:56:26 0° 150° (SSE) 3,301 8.0 -29.5°
Reaches altitude 10° 13:58:48 10° 156° (SSE) 2,360 7.0 -29.4°
Enters shadow 14:03:34 46° 225° (SW) 1,046 4.2 -29.0°
